Temp
14 14 14 14 14 13 13 14 13 13 13 13 13 13 13 14 13 13 12 11 10 11 11 11 11 11 11 12 11 12 12 12 12 12 12 12 12 12 13 13 13 13 13 13 13 13 14 14 14 14 14 14 15 15 15 15 15 16 16 16 16 16 16 16 16 16 15 15 15 15 15 14 14 14
14 14 14 14 13 13 13 13 13 13 13 13 13 13 13 13 13 13 12 11 11 11 11 11 11 11 11 11 11 12 11 11 12 12 12 12 12 12 12 12 12 12 12 12 13 13 13 13 13 13 13 13 14 14 15 15 15 15 16 16 16 16 16 16 16 16 16 15 15 15 15 14 14 14
14 14 14 14 13 13 13 13 13 13 13 13 13 13 13 13 13 13 12 12 11 10 10 10 10 11 11 11 11 12 11 11 11 12 12 12 12 12 12 12 12 12 12 12 12 12 12 12 12 13 13 13 13 13 14 14 14 14 15 15 16 16 16 16 16 16 15 15 15 15 15 15 14 14
14 14 14 14 13 13 13 13 13 13 13 13 13 13 13 13 13 13 12 11 11 10 10 10 10 10 10 11 11 11 11 11 11 11 11 11 12 12 12 11 11 11 12 11 11 11 11 12 12 12 12 12 13 13 13 13 13 13 14 14 15 15 16 16 16 16 15 15 15 15 15 15 14 14
14 14 14 14 13 13 13 13 13 13 13 13 13 13 13 13 12 12 12 11 10 10 10 10 10 10 10 10 10 11 11 11 11 11 11 11 11 11 11 11 11 11 11 11 11 11 11 11 11 11 12 12 12 12 12 12 12 13 13 13 14 14 15 15 15 15 15 15 15 15 15 15 15 14
14 14 14 14 13 13 13 13 13 13 13 13 13 13 13 12 12 12 12 11 10 10 10 10 10 10 10 10 10 10 10 10 10 10 10 10 10 10 10 10 10 11 11 11 11 11 11 11 11 11 11 11 11 12 12 12 12 12 12 13 13 13 14 14 14 15 15 15 15 15 15 14 14 14
14 14 14 14 14 14 13 13 13 13 13 13 13 13 12 12 12 12 12 12 11 10 10 10 10 10 10 10 9 9 9 9 10 10 10 10 10 10 10 10 10 10 10 10 10 10 10 10 10 10 10 11 11 11 11 12 12 12 12 12 12 13 13 13 13 14 14 14 15 15 14 14 14 14
14 14 14 14 14 14 14 14 13 13 13 13 13 13 13 12 12 12 12 11 11 10 10 9 9 9 9 9 9 9 9 9 9 9 9 10 10 9 9 9 9 9 9 9 9 9 9 9 9 10 10 10 10 10 11 11 11 12 12 12 12 12 12 13 13 13 14 14 14 15 15 14 14 14
14 14 14 14 14 14 14 14 13 13 13 13 13 13 12 12 12 12 11 11 11 10 10 9 9 9 9 9 9 9 9 9 9 9 9 9 9 9 9 9 8 8 8 8 9 9 9 9 9 9 9 9 9 9 10 10 11 11 11 12 12 12 12 12 13 13 13 13 14 15 15 15 15 14
14 14 14 14 14 14 14 14 13 13 13 13 13 12 12 12 11 11 11 11 11 10 10 9 9 9 8 8 8 8 8 8 8 9 9 9 8 8 8 8 8 8 8 8 8 8 9 9 9 9 9 9 9 9 9 9 10 10 11 11 12 12 12 12 12 13 13 13 13 14 15 15 15 15
14 14 14 14 14 14 14 14 13 13 13 13 13 12 12 12 11 11 11 11 10 10 10 9 9 8 8 8 8 8 8 8 7 7 8 8 8 8 7 7 7 7 7 7 7 7 8 8 8 8 8 8 8 8 8 9 9 9 10 10 11 11 12 12 12 12 12 13 13 13 14 15 15 15
14 14 14 14 14 14 14 14 14 13 13 13 13 12 12 12 11 11 11 11 10 10 10 9 9 9 8 8 8 7 7 7 6 6 6 6 7 7 6 6 6 6 6 6 6 6 7 7 7 7 7 7 7 7 8 8 8 8 9 9 10 10 11 11 12 12 12 12 13 13 13 14 14 15
14 14 14 14 14 14 14 14 14 13 13 13 13 12 12 12 11 11 11 11 10 10 10 9 9 9 8 8 7 7 7 6 6 5 5 5 5 6 6 6 6 5 5 5 6 6 6 6 6 6 6 6 6 6 7 6 6 7 7 8 8 9 10 10 11 11 12 12 12 13 13 13 14 14
14 14 14 14 14 14 14 14 13 13 13 13 13 12 12 11 11 11 11 10 10 10 9 9 9 8 8 8 7 7 6 6 6 6 5 5 5 5 5 6 5 5 5 5 5 6 5 5 5 5 5 6 6 6 6 6 6 6 7 7 7 8 8 9 10 10 11 11 12 12 13 13 13 13
14 14 14 14 13 13 13 13 13 13 13 13 12 12 11 11 11 10 10 10 10 9 9 9 8 8 8 7 7 6 6 6 6 5 5 4 4 4 3 4 5 5 4 3 4 5 5 4 4 4 5 5 5 5 5 5 5 6 6 6 7 7 8 8 9 9 10 10 11 11 12 12 12 12
13 13 13 13 13 13 13 13 13 13 12 12 12 11 11 11 10 10 10 10 9 9 9 8 8 7 7 7 6 6 6 6 5 5 5 4 4 3 3 2 3 4 4 3 3 4 5 4 3 4 4 4 4 5 5 5 5 5 5 6 6 7 7 8 8 9 9 9 10 10 10 11 11 11
13 13 13 13 13 13 12 12 13 12 12 12 11 11 11 10 10 9 9 9 9 9 8 8 7 7 6 6 6 5 5 5 5 4 4 4 3 3 2 2 3 3 3 2 2 3 4 4 2 3 4 4 4 4 5 5 5 5 5 5 6 6 6 6 7 7 7 7 8 8 8 8 9 10
12 12 12 12 12 12 12 12 12 12 12 12 11 10 10 10 9 9 9 8 8 8 8 7 7 6 6 5 5 5 4 4 4 4 4 4 3 3 2 2 3 3 3 2 1 2 3 3 2 2 3 3 3 3 4 5 5 4 4 5 5 5 5 5 5 5 6 6 6 6 7 7 8 9
12 11 11 11 11 11 11 11 11 12 12 11 10 10 9 9 9 8 8 8 8 7 7 7 6 6 5 5 5 4 4 4 3 3 3 3 2 2 2 2 3 3 2 2 1 1 2 3 2 2 2 3 3 3 3 4 5 4 4 4 5 5 5 5 5 5 5 6 6 6 7 7 7 8
11 11 11 11 11 11 11 11 11 11 11 10 10 10 9 8 8 8 7 7 7 7 6 6 6 5 5 5 4 4 4 3 3 2 2 2 2 2 1 1 2 2 2 2 1 1 1 2 2 2 2 2 2 2 3 4 4 4 4 4 4 5 5 5 5 5 5 5 6 6 7 7 7 8
11 11 11 11 11 10 11 11 11 11 10 10 10 9 8 8 7 7 7 6 6 6 5 5 5 4 4 4 4 3 3 3 2 2 2 2 2 1 1 1 1 1 1 2 2 1 1 2 2 1 2 2 2 2 3 3 4 3 4 4 4 4 4 5 5 5 5 5 5 6 6 7 7 7
10 10 10 10 10 10 10 10 10 10 10 9 9 9 8 7 7 6 6 6 5 5 4 4 4 4 3 3 3 3 3 2 2 2 2 2 1 0 0 0 0 0 1 2 2 1 1 1 1 1 2 2 2 2 3 3 3 3 4 4 3 4 4 4 5 5 5 5 5 5 6 6 6 7
10 10 10 9 10 10 10 9 9 9 9 9 8 8 7 7 6 6 5 5 4 4 4 4 3 3 3 3 2 2 2 2 2 1 1 1 1 0 -0 -0 -0 0 0 1 1 1 1 1 1 1 1 2 2 2 2 2 2 3 3 3 3 3 3 4 4 4 5 5 5 5 5 5 5 6
9 9 9 9 9 9 9 8 8 8 8 8 7 7 7 6 6 5 5 4 4 4 3 3 3 3 2 2 2 2 1 1 1 1 1 1 0 0 -0 -1 -1 -0 -0 0 1 0 0 0 0 1 1 1 1 2 2 1 2 2 2 2 2 3 3 3 4 4 4 4 5 4 5 5 5 5
9 9 8 8 8 8 8 8 7 7 7 7 7 6 6 6 5 4 4 3 3 3 2 2 2 2 2 1 1 1 1 1 1 1 1 1 0 -0 -1 -1 -1 -1 -1 0 0 -0 -0 -0 0 0 0 0 1 1 1 1 1 1 2 2 2 3 3 3 3 4 4 4 4 4 4 4 5 5
8 8 7 7 7 7 7 7 7 7 6 6 6 5 5 4 4 3 3 2 2 2 1 1 1 1 1 1 1 1 1 0 0 0 0 0 0 -0 -1 -1 -1 -1 -1 -0 -0 -1 -1 -0 -0 -0 0 0 1 1 1 1 1 1 1 2 2 2 3 3 3 3 4 4 4 4 4 4 4 4
8 7 7 7 6 6 6 6 6 5 5 5 4 4 3 3 2 2 2 2 1 1 1 1 1 1 0 0 0 0 -0 -0 0 0 0 0 -0 -0 -0 -1 -1 -1 -1 -1 -1 -1 -1 -1 -1 -0 -0 0 0 1 1 1 1 1 1 1 2 2 2 2 3 3 3 4 4 4 4 4 4 4
7 7 6 6 6 6 5 5 5 4 4 4 3 3 2 2 2 2 1 1 1 1 1 0 0 0 -0 -1 -1 -1 -1 -1 0 0 -0 -0 -0 -0 -1 -1 -1 -1 -1 -1 -1 -1 -1 -1 -1 -1 -1 -0 -0 0 1 1 1 1 1 1 1 2 2 2 2 3 3 3 3 4 4 4 4 4
6 6 5 5 5 5 4 4 4 4 3 3 2 2 2 2 1 1 1 1 1 0 0 -0 -0 -1 -1 -2 -2 -2 -2 -2 -1 -1 -2 -1 -1 -1 -1 -1 -2 -2 -2 -2 -1 -1 -1 -1 -1 -1 -1 -1 -1 -0 0 0 0 1 1 1 1 1 2 2 2 2 3 3 3 3 3 4 4 4
5 5 5 4 4 4 4 3 3 3 2 2 2 2 1 1 1 1 1 0 0 -0 -1 -1 -2 -2 -2 -2 -2 -3 -3 -3 -2 -3 -3 -3 -2 -2 -2 -2 -2 -2 -2 -2 -2 -2 -2 -1 -1 -1 -1 -1 -1 -1 -0 -0 -0 0 0 1 1 1 1 2 2 2 2 3 3 3 3 3 3 3
5 4 4 4 4 3 3 3 3 2 2 1 1 1 1 1 1 0 0 -0 -0 -1 -1 -2 -3 -3 -3 -3 -3 -3 -3 -3 -3 -3 -3 -3 -3 -2 -2 -2 -2 -2 -2 -2 -2 -2 -2 -2 -1 -1 -1 -1 -1 -1 -1 -1 -0 -0 0 0 1 1 1 1 1 2 2 2 3 3 3 3 3 3
4 4 3 3 3 3 2 2 2 1 1 1 1 1 1 1 0 0 -0 -0 -1 -1 -1 -2 -3 -3 -3 -3 -3 -3 -3 -3 -2 -2 -3 -2 -2 -2 -2 -2 -2 -2 -2 -2 -2 -2 -2 -2 -2 -2 -2 -2 -2 -1 -1 -1 -1 -1 -0 -0 0 0 1 1 1 1 2 2 2 2 3 3 3 3
4 3 3 3 2 2 2 2 1 1 1 1 0 0 0 0 0 -0 -0 -0 -1 -1 -1 -2 -2 -3 -3 -2 -2 -2 -2 -2 -2 -2 -2 -2 -2 -2 -2 -2 -2 -2 -2 -2 -2 -2 -2 -2 -2 -2 -2 -2 -2 -2 -2 -1 -1 -1 -1 -0 -0 -0 0 0 1 1 1 1 1 2 2 3 3 3
3 3 2 2 2 2 1 1 1 0 0 0 0 0 -0 -0 -0 -0 -0 -0 -1 -1 -1 -2 -2 -2 -2 -2 -2 -2 -2 -2 -2 -2 -2 -2 -2 -2 -2 -2 -2 -2 -2 -2 -2 -2 -2 -2 -2 -2 -2 -2 -2 -2 -2 -1 -1 -1 -1 -1 -1 -0 -0 0 0 1 1 1 1 1 1 2 2 2
3 3 2 2 1 1 1 0 0 -0 -0 -0 -0 -0 -0 0 0 0 -0 -0 -0 -1 -1 -2 -2 -2 -2 -2 -2 -2 -2 -2 -2 -2 -2 -2 -2 -2 -2 -2 -2 -2 -2 -2 -2 -2 -2 -2 -2 -2 -2 -1 -1 -1 -1 -1 -1 -1 -1 -1 -0 -0 -0 0 0 0 1 1 1 1 1 1 1 2
3 2 2 1 1 0 0 -0 -0 -0 -0 -0 -0 -0 0 0 0 0 0 -0 -0 -1 -1 -2 -2 -2 -2 -2 -2 -2 -2 -2 -2 -2 -2 -2 -2 -2 -2 -2 -2 -2 -2 -2 -2 -2 -2 -2 -2 -2 -2 -1 -1 -1 -1 -0 -0 -0 -0 -0 -0 -0 0 0 0 0 0 0 0 0 0 0 1 1
2 2 2 1 0 0 -0 -0 -0 -0 -0 -0 -0 -0 -0 0 0 0 0 -0 -0 -0 -1 -1 -1 -1 -2 -2 -2 -2 -2 -2 -2 -2 -2 -2 -2 -2 -2 -2 -2 -2 -2 -2 -2 -2 -2 -2 -2 -2 -2 -1 -2 -1 -1 -0 -0 -0 -0 -0 0 0 0 0 -0 -0 0 0 0 0 0 0 1 1
2 1 1 0 0 -0 -0 -0 -0 -0 -0 -0 -0 0 0 -0 0 0 0 0 0 0 -0 -0 -1 -1 -2 -2 -2 -2 -2 -2 -2 -2 -2 -2 -2 -2 -2 -2 -2 -2 -2 -2 -2 -2 -2 -2 -2 -2 -2 -2 -2 -1 -1 -0 -0 -0 -0 -0 -0 -0 -0 -0 -0 -0 0 0 0 0 0 0 0 1
2 1 1 0 0 -0 -0 -0 -0 -0 -0 -0 -0 -0 -0 -0 -0 0 0 0 0 0 -0 -0 -1 -2 -2 -2 -2 -2 -2 -2 -2 -2 -2 -2 -2 -2 -2 -2 -2 -2 -2 -2 -2 -2 -2 -2 -2 -2 -2 -2 -2 -1 -1 -1 -1 -1 -1 -1 -1 -1 -1 -1 -1 -1 -0 -0 -0 -0 -0 -0 -0 -0
1 1 0 0 0 -0 -0 -0 -0 -0 -0 -0 -0 -0 -0 -0 -0 0 0 0 0 -0 -0 -1 -1 -2 -2 -2 -2 -2 -2 -2 -2 -2 -2 -2 -2 -2 -2 -2 -2 -2 -2 -2 -2 -2 -2 -2 -2 -2 -2 -2 -2 -2 -2 -2 -2 -1 -1 -0 -0 -0 -0 -1 -1 -1 -0 -0 -0 -0 -1 -1 -1 -1
1 1 0 0 -0 -0 -0 -0 -0 -0 -0 -0 -0 -0 -1 -0 0 0 0 0 0 -0 -0 -1 -2 -2 -3 -2 -2 -2 -3 -2 -3 -2 -2 -2 -2 -2 -2 -2 -2 -2 -2 -2 -2 -2 -1 -1 -1 -1 -2 -2 -2 -2 -2 -2 -1 -1 -1 -0 -0 -0 -0 -0 -0 -0 -0 -0 -0 -1 -1 -1 -1 -2
1 1 0 -0 -0 -0 -0 -0 -1 -0 -0 -0 -0 -0 -0 0 0 0 0 0 0 -0 -0 -1 -2 -2 -3 -2 -2 -2 -3 -3 -3 -2 -2 -2 -2 -2 -2 -2 -2 -2 -2 -2 -2 -2 -1 -1 -1 -2 -2 -2 -2 -2 -2 -1 -1 -1 -1 -1 -1 -0 -0 -0 -0 0 -0 -0 -0 -0 -1 -1 -2 -2
1 0 0 -0 -0 -0 -0 -1 -1 -0 -0 -0 -0 -0 0 0 0 0 0 0 0 -0 -1 -1 -2 -2 -2 -2 -2 -2 -3 -3 -3 -3 -2 -2 -2 -2 -2 -2 -2 -2 -2 -2 -2 -2 -1 -1 -1 -1 -2 -2 -2 -2 -2 -1 -1 -1 -1 -1 -1 -1 -1 -0 -0 0 -0 -0 -0 -0 -0 -1 -1 -1
1 0 0 -0 -0 -1 -1 -1 -0 -0 -0 -0 -0 0 0 0 0 0 0 -0 -0 -1 -1 -2 -2 -2 -2 -2 -2 -3 -3 -3 -3 -3 -2 -2 -2 -2 -2 -2 -2 -2 -2 -2 -2 -2 -1 -1 -1 -1 -2 -2 -2 -2 -2 -1 -1 -1 -1 -1 -1 -1 -1 -1 -1 -1 -1 -1 -1 -1 -1 -0 0 0
0 0 -0 -0 -0 -1 -1 -1 -0 -0 -0 0 0 0 0 0 0 0 0 -0 -0 -1 -1 -1 -1 -1 -2 -2 -2 -3 -3 -3 -2 -2 -2 -2 -2 -2 -2 -2 -2 -2 -2 -2 -2 -1 -1 -1 -1 -1 -1 -2 -2 -2 -2 -2 -1 -1 -1 -1 -2 -2 -2 -2 -2 -2 -1 -1 -1 -1 -1 -0 0 0
Height
843 844 845 845 846 847 848 848 849 849 850 851 851 852 852 852 854 857 859 860 860 860 859 859 858 858 857 857 856 855 854 853 853 851 850 849 848 847 846 845 844 843 843 842 841 841 841 840 840 839 839 839 838 838 837 837 837 836 836 836 835 835 834 834 834 834 833 833 833 832 833 834 834 835
844 845 845 846 847 848 848 849 849 850 850 851 852 852 853 853 854 856 858 860 860 860 859 859 859 858 857 857 856 855 854 853 853 852 851 850 849 848 847 846 845 844 843 842 842 841 841 840 840 839 839 838 838 837 836 836 835 834 834 833 833 832 832 832 832 832 831 831 830 830 830 830 831 833
845 845 846 847 848 848 849 849 850 851 851 852 852 853 853 854 855 856 857 859 860 860 860 859 859 858 857 857 856 855 854 853 853 852 851 850 849 848 847 846 845 844 844 843 842 842 841 840 840 839 839 838 837 836 836 835 834 833 832 831 830 830 830 830 830 829 829 829 828 828 828 827 828 829
845 846 847 848 848 849 850 850 850 851 851 852 852 853 853 854 855 856 856 858 860 860 860 860 859 858 857 857 856 855 854 853 853 852 851 850 849 848 847 846 845 844 844 843 843 842 841 840 840 839 838 837 836 836 835 834 833 832 831 830 829 828 827 827 827 827 827 827 826 826 826 825 825 826
846 847 847 848 849 849 850 850 851 851 851 852 852 853 853 853 854 855 855 857 859 859 859 859 859 858 857 856 855 854 854 853 852 852 851 850 849 848 847 846 845 844 844 843 842 841 841 840 839 838 838 837 836 835 834 833 832 831 830 829 828 827 826 825 825 825 825 825 825 824 824 824 823 823
847 847 848 848 849 850 850 851 851 852 852 852 852 853 853 853 854 854 855 856 857 858 858 858 858 857 856 855 855 854 853 853 852 851 851 850 849 849 848 847 845 844 843 842 841 840 840 839 838 837 837 836 835 834 833 832 831 830 829 828 827 825 824 824 823 823 822 823 823 823 822 822 822 821
847 847 848 849 849 850 850 851 851 852 852 852 853 853 853 853 854 854 854 855 856 857 857 857 857 856 855 855 854 854 853 853 852 851 851 850 849 848 847 846 845 844 843 842 841 840 839 838 837 836 835 834 833 832 832 831 830 829 827 826 825 824 823 822 822 821 820 820 820 820 820 820 820 820
847 847 848 848 849 850 850 851 851 852 852 852 853 853 853 854 854 854 855 855 855 856 856 856 856 856 855 855 854 853 853 852 852 851 850 849 849 848 847 846 844 843 842 841 840 839 838 837 836 835 834 833 832 831 830 829 828 827 826 825 824 823 822 821 820 819 818 818 818 818 818 818 818 818
847 847 848 848 848 849 849 850 851 851 852 852 853 853 853 854 854 855 855 855 855 855 856 856 856 855 855 854 854 853 852 851 850 850 850 849 848 847 846 845 844 842 841 840 839 838 837 836 835 834 832 831 830 829 828 826 825 824 823 822 821 821 820 819 818 817 816 816 815 815 815 815 816 816
847 847 848 848 848 848 848 849 850 851 851 852 852 853 853 853 854 854 855 855 855 855 855 855 855 855 854 854 853 852 851 850 849 848 847 846 846 845 844 843 842 841 840 839 838 836 835 834 833 832 830 829 828 827 825 824 823 822 821 820 819 818 818 817 816 815 814 813 813 812 812 812 812 813
846 846 847 847 847 847 848 848 849 850 851 851 852 852 852 853 853 853 854 854 854 854 854 854 854 854 853 853 852 852 851 850 849 847 845 843 843 843 842 841 840 839 838 837 836 835 834 832 831 829 828 827 826 824 823 822 821 819 818 817 816 815 815 814 813 813 812 812 811 810 809 809 809 809
845 845 846 846 846 846 847 847 848 849 849 850 851 851 851 852 852 852 853 853 853 853 853 853 853 853 853 852 851 850 849 848 848 847 846 844 842 841 840 840 839 837 836 835 833 832 831 830 828 827 826 825 823 822 821 820 818 817 816 815 814 812 812 811 811 810 810 809 809 808 807 807 806 806
843 843 844 844 844 845 845 846 847 848 848 849 850 850 851 851 851 852 852 852 852 853 853 853 852 852 852 851 850 849 848 848 847 847 847 846 844 841 839 838 838 836 834 832 830 829 829 827 826 825 824 823 821 820 819 818 816 815 814 813 811 810 809 808 808 807 807 807 806 806 805 805 804 803
841 841 841 842 842 843 844 845 846 846 847 848 849 849 850 851 851 851 852 852 852 852 852 852 852 852 851 851 850 849 849 848 848 847 846 844 843 841 837 835 835 835 833 830 827 826 826 825 823 823 822 820 819 818 817 816 815 814 813 811 810 809 808 806 805 805 804 804 803 803 803 802 802 801
839 839 839 839 840 841 842 843 844 845 846 847 848 849 849 850 850 851 851 851 851 852 852 852 852 851 851 851 850 850 849 848 847 846 845 844 842 841 839 836 834 833 833 830 826 824 824 824 822 821 820 819 817 816 816 815 814 813 811 810 808 807 806 804 803 802 802 801 800 800 800 800 799 799
837 837 837 837 838 838 839 840 842 843 844 845 846 847 848 848 849 849 850 850 851 851 851 851 851 851 851 850 850 849 848 847 846 845 844 843 842 841 840 838 835 833 832 830 826 823 822 822 821 819 818 817 816 815 814 813 812 811 810 809 807 805 804 802 801 800 799 799 798 798 797 797 797 797
834 835 835 835 835 836 836 838 839 841 842 844 845 846 846 847 847 848 849 849 850 850 850 850 850 850 850 849 848 848 847 846 845 844 843 842 841 839 838 836 834 832 832 830 827 823 821 821 820 818 817 816 815 814 813 812 811 810 809 808 806 804 803 801 800 799 798 797 796 796 795 795 795 795
832 833 833 833 834 834 835 836 838 840 841 842 843 844 845 846 846 847 847 848 848 848 849 849 849 848 848 848 847 847 846 845 844 843 841 840 839 838 836 834 832 831 831 829 827 822 820 820 819 817 816 814 813 812 811 810 809 808 807 806 805 803 802 801 799 798 797 797 796 795 795 794 794 793
831 831 832 832 833 833 834 836 837 839 840 841 842 844 844 845 845 846 846 847 847 847 848 847 847 847 847 846 846 845 844 843 842 841 840 839 838 836 834 832 831 830 829 829 827 822 819 818 817 815 814 813 811 810 809 808 807 806 806 805 803 802 801 800 799 798 797 796 795 794 794 793 793 792
830 830 831 831 832 833 834 836 838 839 840 841 842 843 843 844 845 845 846 846 846 846 846 846 846 846 845 845 844 844 843 842 841 840 839 838 836 834 832 830 828 827 827 827 825 821 818 817 816 813 812 811 809 808 807 806 805 805 804 803 802 801 800 799 798 797 796 796 794 793 793 792 791 791
830 830 831 831 832 833 835 836 838 839 840 841 841 842 843 844 844 845 845 845 845 845 845 845 845 845 844 844 843 842 841 840 839 838 837 836 835 833 830 828 826 825 824 824 823 820 817 816 815 812 810 809 807 805 804 803 803 802 802 801 800 799 798 798 797 796 795 795 794 793 792 791 790 789
830 830 831 832 833 834 835 836 838 839 840 840 841 842 843 843 844 844 844 844 844 844 844 844 844 844 843 842 841 841 840 839 838 837 835 834 833 831 829 827 824 822 822 821 821 819 816 815 814 811 808 805 804 803 802 801 801 801 800 799 798 798 797 796 795 794 794 793 793 792 791 790 789 788
830 831 832 833 834 835 836 837 838 839 839 840 841 842 842 842 843 843 843 843 843 843 843 843 842 842 841 840 839 839 838 837 836 835 834 833 831 829 828 826 824 821 819 820 820 818 814 813 813 811 808 803 800 800 800 799 799 799 798 797 796 796 795 794 793 792 792 792 791 790 790 789 788 787
831 831 832 834 834 835 836 837 838 839 839 840 841 841 841 841 842 842 842 842 842 842 841 841 840 840 839 838 837 836 835 835 834 833 832 831 829 828 826 824 823 821 818 818 819 816 813 812 811 810 810 806 800 797 797 797 797 797 796 795 794 793 792 791 791 790 790 789 789 788 788 788 787 786
831 832 833 834 834 835 836 837 838 838 839 839 840 840 841 841 841 841 841 841 840 840 839 839 838 837 836 835 834 833 832 832 831 830 829 828 827 826 824 822 820 818 815 815 817 815 811 810 809 807 807 805 800 796 795 794 794 794 793 793 792 791 790 789 788 788 787 787 787 786 786 786 785 784
831 833 834 834 835 836 836 837 837 838 838 839 839 839 840 840 840 840 840 839 839 838 837 837 835 834 833 832 831 830 829 828 827 826 825 824 823 822 821 820 817 815 812 812 814 813 809 807 806 805 803 801 798 795 793 791 790 790 790 790 789 789 788 787 786 785 785 784 784 784 783 783 783 782
832 833 834 835 835 836 836 837 837 838 838 838 839 839 839 839 839 839 838 838 837 836 836 834 833 832 831 829 828 827 826 824 823 822 821 820 819 818 817 816 814 812 810 809 809 809 807 804 803 802 801 798 795 793 791 789 788 788 787 787 786 786 785 784 783 782 782 782 781 781 781 780 780 780
832 833 834 835 835 836 836 836 837 837 838 838 838 839 839 838 838 838 837 836 836 835 834 832 831 830 829 827 826 824 823 821 820 818 817 816 815 814 812 811 810 808 807 806 805 804 803 801 799 799 798 796 793 790 788 787 786 786 785 784 783 783 782 782 781 780 779 779 779 778 778 778 778 778
832 833 834 834 835 836 836 837 837 837 838 838 838 838 838 838 837 836 836 835 834 833 832 830 829 828 826 825 824 822 820 819 817 815 814 812 811 810 808 807 806 804 803 801 800 800 799 797 796 795 795 793 791 789 787 785 784 783 782 781 780 779 778 778 777 777 776 776 775 775 775 775 775 775
832 833 834 835 835 836 836 837 837 837 837 838 838 838 837 837 836 835 835 834 833 832 831 829 828 826 824 823 821 820 818 817 815 814 812 810 809 807 805 804 802 800 799 797 796 796 795 794 793 792 791 790 788 787 785 783 781 780 780 779 777 776 775 774 774 774 773 773 772 772 772 772 772 772
832 833 834 835 835 836 836 836 836 836 837 837 837 837 836 836 835 834 834 833 832 830 829 828 826 824 823 821 820 818 817 815 814 812 810 808 807 805 803 801 799 797 795 794 793 792 791 791 790 789 788 787 785 783 783 781 778 777 776 776 775 773 772 772 772 771 771 770 770 769 769 769 769 769
832 833 834 835 835 836 836 836 836 836 837 837 836 836 836 835 834 834 833 832 831 829 827 826 824 822 821 820 818 816 815 813 811 810 808 806 804 803 801 799 796 794 792 791 789 789 788 787 786 786 785 783 781 780 779 777 775 774 773 772 772 770 770 770 769 768 768 768 767 767 767 766 766 766
831 833 834 834 835 836 836 836 836 836 836 836 836 835 835 834 834 833 831 830 829 827 825 824 822 820 819 817 815 814 812 810 808 807 806 804 802 800 799 797 794 792 790 788 786 786 784 783 783 782 781 779 778 777 776 774 772 771 770 769 768 767 766 766 766 766 766 766 765 765 764 763 763 764
831 832 833 834 835 835 835 835 836 836 836 835 835 835 834 833 832 831 830 828 826 825 823 821 820 818 817 815 813 812 810 808 806 804 803 801 800 798 796 794 792 790 788 786 784 783 781 780 779 778 777 775 774 773 772 771 769 767 766 765 764 763 762 762 763 763 763 763 763 763 762 760 760 761
831 832 832 833 834 834 835 835 835 835 835 835 834 834 833 832 831 829 828 826 824 822 821 819 818 816 815 813 811 809 807 805 803 801 800 798 797 795 793 791 789 787 785 783 781 780 779 777 776 775 773 771 769 767 767 767 765 764 763 762 761 760 759 759 759 760 760 760 761 760 759 757 757 758
830 831 832 832 833 834 834 835 835 835 834 834 833 832 831 830 829 827 825 824 822 820 819 817 816 814 813 811 809 807 805 803 801 799 797 795 794 792 790 788 786 783 782 780 778 777 776 774 774 772 770 769 767 764 762 763 763 761 760 760 759 758 757 757 757 757 757 757 758 757 756 755 755 756
830 831 831 832 833 833 834 834 834 834 834 833 832 831 830 828 827 825 824 822 820 819 817 816 814 812 810 809 807 805 803 801 799 797 795 793 791 789 787 785 783 780 778 776 775 774 773 771 771 770 768 766 764 762 760 760 760 760 759 758 757 756 756 755 755 755 755 755 755 754 754 753 753 754
829 830 831 832 832 833 833 833 833 833 833 832 831 830 828 827 825 823 822 820 818 817 815 814 812 810 808 807 805 802 800 798 796 795 792 790 789 786 784 782 780 777 775 773 771 770 769 768 767 767 766 764 762 760 758 757 757 757 757 757 756 755 754 754 753 753 753 753 752 752 752 752 752 753
829 830 831 831 832 832 832 832 832 832 832 831 830 828 827 825 823 821 820 818 816 815 814 812 810 808 806 805 803 800 798 796 794 792 790 788 786 784 782 779 777 775 772 770 768 767 766 765 764 763 763 762 760 758 757 755 754 754 755 755 754 753 752 752 752 751 751 751 751 750 751 751 751 752
829 830 830 831 831 831 832 832 832 831 830 829 828 827 825 823 821 819 818 816 815 814 812 811 809 807 805 802 800 798 796 794 793 790 788 786 783 781 779 777 775 772 770 767 765 763 762 761 761 760 759 758 757 756 755 754 752 751 751 752 752 751 750 750 750 749 749 749 750 750 750 750 751 751
828 829 830 830 830 831 831 831 831 830 829 828 827 826 824 822 820 818 817 816 814 812 811 809 807 805 803 801 799 797 794 792 790 788 786 783 781 779 777 775 773 770 768 766 763 761 759 758 757 757 756 755 754 754 753 752 751 750 749 749 749 749 748 748 748 748 748 748 749 749 750 750 751 751
828 828 829 829 830 830 830 831 830 829 828 827 825 824 822 820 819 817 816 814 813 811 809 807 805 803 801 799 797 795 793 790 788 786 784 781 778 776 774 772 770 768 766 764 761 758 756 755 754 754 753 752 752 752 751 750 750 749 748 748 747 747 746 746 746 746 747 747 748 748 749 750 751 752
827 828 828 829 829 830 830 830 829 828 827 825 824 822 820 819 817 816 814 813 811 810 808 806 804 802 799 797 795 793 791 788 786 784 781 779 776 774 772 769 767 765 763 761 758 755 754 753 752 751 750 750 750 750 749 749 749 748 747 747 746 746 745 744 744 744 745 746 747 748 749 750 750 750
826 827 827 828 829 829 829 829 828 827 826 824 823 821 819 818 816 815 813 812 810 809 807 805 802 800 798 795 793 791 788 786 784 782 779 777 774 772 769 767 765 762 760 758 755 753 752 751 750 749 749 748 748 748 748 748 748 747 747 747 746 746 746 745 744 745 745 746 747 748 749 749 749 749
826 826 827 827 828 828 828 828 827 826 825 823 822 820 818 817 815 814 812 811 809 807 806 803 801 799 796 794 791 789 786 784 782 779 777 774 772 769 767 764 762 760 758 756 754 752 750 749 749 748 748 747 747 746 746 747 747 747 747 747 747 747 747 746 746 746 746 747 748 749 749 750 749 749
Wind_Speed
15 15 15 16 17 17 15 16 15 14 14 13 13 14 13 10 5 1 2 2 4 10 13 13 15 16 17 17 16 15 14 14 14 13 14 15 15 14 13 13 13 12 12 12 12 12 10 9 7 7 6 6 7 8 9 9 10 11 12 13 13 14 15 15 15 15 16 16 17 17 18 21 23 26
15 16 16 16 16 15 14 14 13 11 11 10 11 11 11 12 9 5 2 1 3 7 10 12 13 15 16 16 15 14 14 13 13 12 12 13 14 13 12 13 12 12 12 12 12 11 11 10 9 8 8 8 7 7 8 9 9 10 11 11 13 13 14 15 15 15 15 15 15 14 15 17 19 22
14 14 15 14 14 12 11 11 10 9 9 9 9 9 9 11 11 9 6 2 3 6 8 10 11 13 14 14 14 14 14 14 13 12 12 11 11 11 12 12 12 11 11 11 11 11 10 10 9 9 8 8 9 8 8 9 9 9 9 10 11 12 13 13 14 14 14 14 14 13 13 14 15 16
12 12 13 12 11 9 8 8 8 8 9 9 9 10 10 11 10 10 9 5 3 4 5 8 10 11 12 13 14 15 15 15 14 13 13 12 11 11 12 13 12 12 12 11 11 11 10 10 10 9 9 9 9 9 9 9 9 9 9 8 9 10 12 13 13 13 13 12 12 12 12 13 13 13
9 10 11 11 10 8 7 7 6 7 8 8 9 9 8 10 9 9 10 8 5 3 4 6 9 10 11 13 16 17 17 16 16 15 14 13 13 13 13 14 14 13 13 13 12 12 12 12 11 11 10 10 10 10 10 10 10 10 9 8 8 8 10 12 13 14 14 13 12 12 12 12 13 13
8 7 7 8 8 7 6 6 5 5 5 5 6 6 6 8 8 7 8 7 5 3 4 5 8 10 12 15 17 18 19 18 17 16 16 16 15 15 15 15 15 14 14 13 13 13 13 13 13 13 13 13 13 12 12 12 11 11 10 9 8 8 8 10 11 13 14 14 13 13 12 12 12 13
6 6 5 5 5 5 4 4 4 4 4 3 4 5 5 6 7 7 8 7 5 5 4 6 9 10 12 15 17 18 19 18 17 18 18 17 18 18 18 18 17 15 14 13 13 13 14 14 14 15 14 14 14 14 14 14 14 13 13 11 10 9 8 8 9 11 13 14 14 14 13 12 11 12
6 6 5 5 4 4 3 3 3 2 2 1 2 3 4 5 6 6 8 9 8 6 6 6 8 11 12 14 16 18 18 18 18 19 20 19 20 21 22 22 22 18 15 14 14 15 15 16 16 16 16 15 15 14 15 15 15 15 15 14 13 11 10 9 9 9 11 12 14 15 15 14 12 12
6 6 6 5 5 5 5 4 3 2 2 1 0 1 2 3 4 6 7 9 9 8 7 6 7 10 12 14 15 18 20 20 20 21 22 21 23 26 25 25 24 19 17 18 18 19 19 19 19 18 17 16 15 14 14 14 15 16 16 17 16 15 13 12 10 10 10 11 13 15 16 16 15 14
9 9 8 7 7 7 7 6 5 5 4 3 2 1 0 1 3 4 6 8 9 8 7 6 7 9 12 14 15 17 20 21 21 24 26 25 26 29 29 29 26 19 19 22 23 24 25 25 23 21 19 17 16 15 15 15 14 14 15 16 17 17 17 15 13 12 11 11 12 14 16 17 17 16
11 11 11 11 11 10 9 8 8 6 5 4 3 2 1 1 1 3 5 6 7 8 7 7 8 10 11 13 14 16 18 19 20 25 28 29 31 31 31 32 27 21 21 25 27 29 29 28 27 24 22 20 18 16 15 15 15 14 14 15 16 17 18 17 16 15 13 12 12 13 15 17 17 17
13 13 13 14 14 13 12 11 10 9 8 7 6 5 4 3 2 2 3 4 6 6 6 7 8 10 12 13 15 16 18 19 19 21 23 25 30 32 33 31 26 23 25 28 31 33 31 29 28 25 23 21 19 18 16 14 14 14 14 14 15 16 17 17 18 17 16 14 13 13 14 15 17 17
17 16 16 16 16 16 15 14 12 11 10 9 7 6 6 5 3 2 2 4 4 5 5 6 8 11 13 14 16 17 18 18 18 20 20 22 25 29 33 31 23 21 26 31 35 34 31 29 27 25 23 21 19 18 15 12 14 15 14 14 14 15 15 16 17 17 17 16 15 14 14 15 16 17
18 18 18 18 18 18 17 16 14 13 12 10 9 8 6 5 4 3 3 3 3 4 5 6 7 10 12 12 13 15 16 16 18 20 22 23 26 28 31 30 25 23 27 33 36 35 30 27 26 25 23 20 18 15 12 12 14 14 14 14 14 14 15 15 15 15 16 16 16 15 14 14 15 16
17 17 18 18 19 20 19 18 16 14 13 11 10 7 5 4 4 4 3 3 4 5 5 6 7 8 10 11 12 13 15 17 18 20 21 22 24 24 22 21 24 27 28 30 33 33 29 25 24 24 22 18 16 13 10 11 12 13 14 15 15 15 14 14 13 14 14 15 15 14 13 13 13 13
14 15 15 16 18 19 19 18 17 15 14 12 9 7 6 6 5 4 3 4 5 6 6 7 7 7 8 10 11 13 15 17 18 20 21 21 21 21 18 17 22 26 26 25 27 31 29 24 22 23 20 16 15 13 10 10 10 12 14 16 16 16 14 13 12 12 12 12 12 12 12 11 10 10
12 13 13 14 14 15 16 17 16 16 15 12 10 9 8 7 6 5 5 6 7 7 8 8 8 8 8 9 10 12 13 16 18 20 21 21 20 19 19 19 23 24 22 19 22 27 28 23 20 21 20 17 16 14 11 11 11 11 14 15 16 16 15 13 11 9 9 9 9 9 9 9 9 10
10 10 11 11 11 12 13 13 15 16 15 13 11 10 8 7 6 7 7 7 7 7 7 8 8 8 8 9 10 12 13 14 16 17 18 19 19 19 19 20 23 22 19 16 16 20 24 23 19 20 22 20 17 15 14 13 11 10 13 14 14 15 15 15 13 10 9 8 7 7 7 8 9 10
6 6 6 7 7 8 10 12 15 15 13 12 11 9 7 6 6 6 6 5 6 6 6 6 7 8 9 10 11 12 14 14 14 14 15 16 17 19 20 21 23 22 18 16 14 16 20 21 20 21 23 21 18 17 16 14 10 9 11 13 14 14 14 15 14 12 10 8 7 7 7 8 8 9
2 2 2 3 4 7 10 14 14 12 10 9 8 7 6 6 5 4 4 5 5 5 6 7 8 8 10 11 12 13 13 14 14 14 15 16 17 18 19 21 23 21 19 19 17 16 18 20 21 22 24 22 20 19 17 12 8 8 10 12 14 15 15 15 14 13 12 9 6 5 6 7 8 10
2 2 1 1 4 8 11 12 10 8 7 7 7 7 6 4 4 3 4 5 5 6 7 7 7 8 9 10 12 12 12 13 13 14 16 16 17 16 15 15 17 20 22 21 16 14 16 19 22 23 23 21 20 20 16 10 7 8 10 12 14 16 16 15 15 14 13 10 7 5 5 5 5 6
4 5 5 4 6 8 9 8 7 6 5 5 6 5 5 4 4 3 3 4 5 6 6 7 7 8 10 11 12 12 12 13 13 15 16 17 17 16 14 13 16 20 21 15 10 12 16 20 22 22 21 19 18 14 9 7 9 12 14 15 16 17 18 16 15 14 12 11 9 8 7 7 7 6
7 8 8 7 6 6 6 5 5 4 3 3 3 4 4 4 3 3 4 5 6 6 7 9 10 11 12 13 13 13 13 13 13 15 16 17 17 17 17 16 15 14 11 9 12 16 18 18 19 18 17 15 12 7 6 12 17 17 18 18 17 18 20 17 15 13 12 12 12 11 10 10 11 11
7 8 7 6 6 5 4 4 3 2 1 1 2 2 3 2 3 4 5 6 7 9 10 11 12 13 14 15 15 15 15 15 15 15 16 16 17 18 19 19 16 14 14 17 20 21 19 17 17 16 14 13 12 13 15 20 20 18 18 18 18 18 19 17 15 14 15 15 15 14 12 12 13 14
6 7 7 6 6 4 4 3 2 1 0 1 2 2 3 3 3 4 6 7 8 9 11 12 13 15 16 16 17 17 17 17 17 16 17 17 17 18 20 21 20 19 21 24 23 21 21 20 18 18 17 16 18 21 22 21 20 19 19 18 17 17 17 17 18 18 17 17 15 14 14 13 13 14
7 7 7 6 5 4 3 3 2 1 1 1 2 2 3 3 3 5 6 7 9 10 12 13 15 16 18 18 19 19 19 19 18 18 19 19 19 19 20 21 22 22 23 24 23 22 23 22 19 19 19 18 20 22 22 21 20 19 17 16 16 17 18 18 20 20 19 18 17 15 15 14 14 15
8 8 7 6 5 4 2 2 1 1 0 1 1 1 2 2 4 5 7 8 10 12 13 15 17 18 19 20 21 21 20 20 20 20 21 20 20 20 20 20 22 23 23 23 22 21 22 23 20 20 21 22 22 21 21 21 20 18 18 18 19 20 20 20 21 22 21 20 20 18 17 17 16 15
9 9 8 6 5 4 3 3 3 3 2 1 1 1 2 4 5 7 8 10 12 14 15 17 18 19 20 20 20 19 19 20 21 21 20 20 19 20 20 20 21 22 22 22 21 20 22 23 22 21 22 23 23 22 21 21 21 20 20 20 21 22 22 21 21 22 22 23 22 20 18 17 17 16
10 9 8 7 6 6 6 5 5 4 3 2 1 2 3 5 7 8 10 12 14 15 16 17 18 18 18 17 18 18 18 19 20 19 17 18 18 20 21 21 22 23 23 22 22 20 20 21 22 22 22 22 23 23 23 24 23 21 20 20 20 21 23 23 21 20 21 23 23 22 21 19 17 16
10 9 8 8 8 8 7 5 4 3 2 1 2 3 5 6 8 10 11 12 13 13 14 15 15 15 15 15 16 15 15 15 15 15 15 16 17 18 20 21 21 21 21 21 21 21 20 20 21 22 22 22 22 23 24 25 24 22 20 20 20 20 21 21 19 17 18 21 22 22 20 18 16 17
11 11 10 10 9 8 6 5 3 2 1 1 3 4 6 8 8 9 9 10 11 12 14 14 15 14 13 14 14 15 15 16 16 16 17 18 17 18 19 20 20 20 19 19 19 20 21 21 21 22 22 22 22 23 23 24 24 23 21 20 20 20 19 19 21 22 22 21 20 18 16 16 18 19
13 12 12 10 8 6 5 4 3 1 0 2 4 5 6 7 7 8 9 10 12 13 15 16 16 15 14 15 16 17 17 18 19 19 18 18 19 19 19 19 19 20 20 19 19 19 21 21 21 22 23 23 23 23 22 23 23 23 22 22 23 24 24 24 25 26 24 21 20 19 18 20 21 20
14 13 11 10 8 6 4 4 2 1 2 3 4 5 6 7 8 9 11 13 14 16 16 17 16 15 15 16 17 17 17 17 18 19 19 19 20 20 19 19 19 20 20 20 20 20 20 20 20 21 22 23 24 23 23 23 23 22 22 23 24 24 26 25 24 24 23 21 20 20 22 23 22 21
14 14 12 9 7 6 4 3 2 2 4 4 5 6 7 8 10 12 13 15 16 17 17 17 17 16 15 16 16 16 17 18 19 19 20 20 20 20 19 19 19 19 20 20 21 20 20 20 20 21 22 22 23 23 23 22 23 23 22 23 24 25 25 25 23 23 23 22 21 21 23 25 24 21
14 13 11 9 7 5 4 3 3 3 4 5 6 8 9 10 12 14 16 17 18 18 18 18 18 17 16 16 17 17 18 20 20 21 21 20 20 19 19 19 20 20 20 21 21 20 20 20 20 19 19 19 19 19 18 18 20 22 21 20 21 22 23 23 23 23 24 23 22 21 22 24 24 19
13 11 9 9 7 5 4 3 3 2 3 5 7 9 11 13 14 16 18 18 18 19 19 19 20 20 19 19 19 19 19 20 20 21 21 22 22 21 20 20 21 21 21 20 21 21 21 20 19 17 16 14 12 12 13 13 14 17 18 18 18 19 21 21 21 22 22 21 21 21 21 22 21 17
12 10 9 9 8 6 4 3 2 2 3 5 7 9 12 15 16 17 18 19 19 20 20 20 21 22 22 22 20 19 19 20 21 21 21 22 22 21 20 20 20 20 20 20 20 20 21 20 19 17 13 10 8 8 11 13 13 13 15 17 19 20 19 18 17 18 18 18 18 20 20 21 19 15
11 11 10 9 8 5 3 2 2 2 3 5 8 11 13 15 17 19 19 20 21 21 21 22 22 23 23 22 21 20 21 22 22 22 21 21 21 21 21 20 20 20 21 20 19 20 20 20 20 19 14 9 7 7 9 11 12 11 11 14 17 19 18 15 14 15 15 15 15 16 16 17 15 12
11 11 10 9 7 4 3 2 1 2 4 6 9 12 15 17 19 20 21 22 22 22 22 23 24 24 23 22 21 21 23 23 22 22 21 21 22 22 21 21 21 21 21 21 20 20 20 19 19 19 17 15 13 12 13 15 16 17 17 16 17 19 19 17 15 15 15 14 12 11 9 9 9 7
10 10 9 7 5 3 2 2 1 2 5 8 10 13 16 18 20 21 22 22 22 22 23 23 24 23 23 23 23 23 24 23 22 22 22 22 23 22 22 22 23 22 21 22 22 21 19 19 19 20 20 19 19 19 20 20 20 21 21 17 14 15 16 16 15 14 13 11 9 8 7 7 8 7
10 9 8 5 3 2 2 2 1 4 6 9 12 14 17 19 20 21 22 22 22 22 23 23 24 23 23 24 24 23 23 23 22 22 22 23 23 23 23 23 22 21 20 20 20 20 21 22 22 21 20 19 18 17 14 12 12 14 15 14 12 12 12 12 11 10 10 9 8 9 8 8 8 8
8 8 6 4 2 2 2 1 3 6 8 10 13 16 19 20 21 21 22 21 21 22 23 24 24 24 24 25 25 24 23 23 22 22 23 23 23 24 23 21 20 20 19 19 20 22 24 24 23 20 17 15 13 11 8 8 9 11 12 13 13 12 12 11 8 7 8 8 8 8 7 6 6 6
8 6 5 3 2 3 2 2 5 7 9 11 15 18 20 21 22 22 22 22 22 23 23 24 24 25 25 26 27 26 24 24 23 23 23 24 23 22 21 21 21 21 21 21 23 24 24 22 19 15 12 10 9 9 9 9 10 10 10 12 11 8 7 5 3 5 7 8 8 7 6 5 3 3
7 5 4 3 4 3 1 3 6 8 10 13 16 18 20 22 22 22 22 22 23 22 23 24 25 26 27 28 28 28 27 26 26 25 25 25 25 23 22 23 23 23 22 23 23 22 21 18 15 11 9 8 8 8 9 9 8 8 8 8 5 1 2 4 5 7 8 8 6 4 4 5 2 2
6 5 4 5 5 2 1 5 7 9 11 14 17 19 21 21 22 22 21 21 22 22 23 24 26 27 29 29 28 28 28 28 27 26 26 25 25 25 24 23 22 22 21 21 20 19 19 16 12 9 8 8 8 8 8 8 7 7 5 2 2 5 7 8 10 11 11 9 6 4 3 3 1 3
Wind_Direction
113 113 112 110 108 109 107 102 100 95 90 87 81 73 74 85 105 116 41 38 40 35 31 30 25 19 19 22 22 23 30 35 36 40 43 43 42 40 41 44 44 45 43 41 41 40 39 33 21 9 354 339 326 317 312 308 300 292 284 277 272 268 267 267 265 265 268 267 264 262 262 260 253 246
113 112 111 111 109 109 109 105 101 99 95 92 89 82 76 76 86 110 117 71 48 43 34 28 20 12 12 15 16 19 22 24 25 29 33 34 33 31 33 37 38 39 39 38 37 36 37 37 35 28 20 12 359 341 331 327 320 311 300 286 275 268 268 270 268 266 267 269 268 263 261 263 262 260
115 114 113 114 115 113 110 104 99 96 96 98 97 94 88 82 82 91 101 96 53 50 38 27 18 11 10 11 14 20 21 19 17 16 18 19 15 14 17 20 20 22 24 26 26 27 27 26 25 22 16 12 7 359 350 343 338 332 320 304 286 272 267 269 271 269 267 268 269 263 257 256 258 265
118 117 117 116 117 116 112 104 99 96 96 99 103 102 97 92 87 85 90 98 92 66 37 20 16 14 12 13 16 21 22 22 19 15 13 9 2 1 4 3 1 1 1 2 3 4 6 9 9 7 3 360 358 355 353 349 346 344 338 326 308 287 275 270 269 268 266 267 270 269 264 259 255 254
129 122 118 117 115 113 112 108 103 101 101 101 103 103 96 93 90 83 88 103 112 82 37 19 19 18 18 19 20 20 19 20 20 18 16 13 8 4 2 358 353 349 346 345 345 345 346 347 347 347 345 343 342 341 342 342 341 342 341 337 326 308 292 280 270 264 261 262 266 271 273 270 265 258
143 137 123 120 122 116 109 108 108 106 106 105 101 94 82 79 78 69 76 98 113 89 51 33 29 25 24 24 24 22 21 20 19 19 19 19 18 14 10 5 358 352 347 344 342 340 339 338 337 335 332 330 328 325 326 327 328 329 330 330 328 319 306 292 280 270 262 260 260 264 269 270 270 268
160 161 150 140 140 139 124 113 114 114 108 97 81 73 58 52 55 51 48 61 80 75 55 37 34 32 27 24 24 21 20 20 18 18 18 17 17 15 12 9 5 1 357 354 351 349 346 343 340 336 332 327 322 318 315 313 314 316 317 318 320 316 310 300 291 282 272 265 262 263 267 269 270 272
183 182 179 174 169 168 168 151 137 133 127 103 62 54 42 33 36 34 28 32 44 53 50 41 34 30 26 22 18 14 13 13 13 13 11 9 9 8 8 7 5 4 4 1 358 355 353 350 346 343 338 333 327 320 315 309 306 305 306 307 308 309 307 301 294 286 279 271 265 264 267 268 270 270
224 217 210 202 199 198 202 203 197 197 198 192 148 52 45 31 24 19 18 21 26 32 39 42 34 24 20 18 14 9 6 5 4 4 3 3 2 360 0 3 2 1 0 358 354 351 350 348 346 344 341 337 333 328 323 316 307 301 299 298 297 298 299 299 296 289 283 277 269 265 266 267 268 267
254 250 243 235 231 227 224 222 216 211 211 213 217 206 109 45 26 18 16 17 16 18 22 27 25 18 14 11 9 6 4 2 0 357 356 356 356 354 354 356 358 358 354 351 347 345 344 344 343 342 341 339 335 331 330 326 319 308 298 294 291 290 290 291 293 291 286 282 274 267 263 263 264 263
263 262 259 256 253 249 247 240 231 226 224 228 236 241 249 290 3 9 12 11 8 8 10 9 8 8 8 5 3 2 1 2 0 357 354 350 348 349 349 349 351 351 347 344 341 340 340 341 342 342 343 342 338 334 334 333 328 318 304 295 289 286 285 284 286 287 286 285 280 273 264 260 260 258
267 271 270 265 261 260 259 253 247 245 239 235 233 233 242 256 281 337 0 359 354 355 0 360 355 353 354 354 354 354 358 360 359 357 353 345 342 342 342 343 346 343 340 338 336 337 339 340 342 344 345 346 343 338 339 338 333 324 313 303 294 288 285 282 282 282 283 284 282 279 272 262 257 254
270 275 275 268 263 262 261 257 253 250 248 246 243 240 242 246 256 297 325 333 338 343 345 344 340 339 341 346 348 349 353 354 349 345 344 340 338 336 335 338 342 339 336 334 333 335 340 340 341 345 347 348 345 341 344 348 342 334 327 317 306 299 293 287 283 280 279 280 279 279 278 270 260 252
270 272 272 268 263 261 261 258 253 248 244 243 246 251 252 250 263 287 303 315 326 331 327 324 325 326 330 337 340 339 341 340 336 336 338 336 335 335 335 336 336 335 335 334 331 332 338 340 340 344 348 349 347 345 351 357 352 347 343 334 323 314 307 298 291 284 278 276 275 275 276 275 266 253
271 273 276 273 266 263 262 258 251 244 237 233 234 236 231 235 258 278 297 312 311 307 301 299 305 309 313 320 324 326 327 327 328 332 332 331 331 333 334 328 324 329 335 334 329 328 333 339 339 341 348 351 349 350 354 355 357 356 349 342 335 327 318 308 300 292 283 277 272 268 267 268 266 254
268 271 274 273 270 268 264 258 248 235 223 218 216 211 212 225 240 255 285 297 291 286 284 284 286 287 293 303 310 315 318 319 322 325 325 326 326 325 321 311 311 323 334 334 326 323 329 338 339 339 347 352 348 347 343 339 344 348 345 342 340 339 331 316 306 299 292 282 272 265 257 254 254 251
266 268 269 270 272 271 265 256 241 222 209 206 207 209 216 225 236 261 282 281 274 273 274 275 276 278 285 295 303 308 312 315 318 320 320 321 321 317 315 310 311 322 333 334 324 319 323 334 339 337 341 345 342 338 332 328 327 329 333 335 341 349 349 338 329 322 315 306 290 275 262 252 246 244
273 276 277 276 274 271 264 247 222 206 202 204 206 207 213 227 252 272 274 268 267 271 273 273 278 284 291 298 304 309 311 314 316 316 315 316 316 314 312 310 312 320 329 333 324 311 317 331 336 333 336 338 336 333 328 325 320 317 323 326 332 346 354 354 350 346 341 334 319 300 283 269 258 251
281 287 290 281 269 259 241 216 200 197 199 200 200 205 221 242 257 261 262 268 277 281 281 284 290 296 301 305 310 313 315 315 314 310 308 310 310 310 309 308 311 316 322 332 323 298 307 327 330 327 333 335 330 328 329 326 317 310 317 322 324 332 342 348 349 345 340 331 320 309 294 282 275 268
298 308 301 273 245 222 203 191 190 195 197 198 207 221 232 240 242 245 260 275 283 287 289 292 295 298 303 309 313 316 316 314 310 306 304 306 308 308 306 306 310 313 317 324 317 293 299 322 324 320 327 330 323 323 326 324 314 310 317 322 325 327 330 335 337 335 333 330 326 319 303 288 281 276
80 97 112 184 194 189 184 183 188 197 204 214 225 228 225 222 231 247 268 281 289 297 300 302 305 307 309 311 312 314 313 309 308 305 304 307 309 307 303 302 305 309 312 318 314 290 295 317 321 316 320 321 317 318 323 323 314 310 313 319 323 322 321 325 326 323 323 325 330 341 340 320 301 286
119 121 124 142 168 172 171 173 181 191 207 219 219 215 212 214 228 247 269 288 297 302 305 307 311 311 311 311 310 310 308 306 303 302 303 307 309 305 300 298 301 306 310 317 313 292 297 312 317 315 315 312 308 311 321 321 309 303 304 311 313 309 309 314 318 315 313 316 320 325 331 332 330 326
132 131 129 134 148 157 157 161 168 177 195 209 205 207 216 219 234 263 282 296 301 304 307 310 312 312 312 312 310 309 308 305 301 298 298 302 306 305 300 299 302 305 304 308 309 302 301 307 311 313 315 312 306 300 294 300 305 306 307 308 304 299 299 304 308 308 305 307 311 310 309 314 319 320
139 137 135 132 132 139 145 150 158 169 185 219 215 224 245 256 270 288 299 305 308 310 312 312 312 313 312 311 312 311 310 309 307 303 299 298 301 302 302 299 295 286 282 294 304 303 299 300 301 302 301 295 291 291 293 298 302 305 306 306 302 300 302 302 300 301 301 302 302 299 298 304 311 312
149 145 142 138 136 138 138 137 143 154 178 271 270 277 295 300 299 302 307 310 312 314 314 313 313 314 314 315 315 314 313 312 310 306 301 298 296 296 298 297 292 284 284 293 301 300 296 294 294 295 291 281 280 289 295 296 297 298 302 303 301 302 304 300 296 296 299 300 296 289 288 293 301 305
155 151 148 145 144 144 143 140 139 151 265 285 291 301 310 312 312 314 313 314 316 316 317 318 319 319 320 320 319 317 315 312 309 304 300 298 296 294 292 292 290 287 288 294 298 295 291 288 287 289 288 283 283 288 292 293 295 297 298 295 295 299 300 295 290 291 294 295 293 288 284 285 291 295
164 159 155 150 146 146 150 149 136 123 247 296 327 331 324 321 318 317 316 317 317 319 321 322 321 321 322 322 320 318 316 312 309 305 301 298 296 294 292 290 289 288 290 293 294 288 284 283 281 280 281 284 287 288 288 290 294 295 293 289 291 296 297 291 287 286 287 289 290 287 281 278 282 287
167 163 160 156 151 148 143 136 131 123 117 104 89 30 325 320 316 316 318 319 320 321 321 321 321 321 321 321 318 316 315 313 312 310 307 305 304 304 304 303 301 299 297 295 291 284 280 279 278 277 279 281 283 285 287 290 290 290 289 289 290 292 294 294 290 285 282 284 285 282 276 274 278 283
160 158 156 149 143 140 137 136 134 128 118 105 29 326 316 316 317 318 320 321 321 322 323 323 323 321 320 319 318 317 318 318 317 316 314 314 316 319 318 315 311 308 304 299 294 287 280 276 276 277 278 277 277 280 285 288 288 287 285 283 284 287 288 290 291 287 282 281 280 277 273 273 275 280
158 153 149 145 142 140 140 141 137 124 108 63 322 318 319 322 324 325 325 325 326 328 329 328 324 320 319 319 319 320 320 318 317 316 315 314 315 317 316 312 307 305 303 300 296 292 287 282 280 279 278 277 276 277 281 284 285 284 281 277 277 280 281 282 284 283 281 280 279 277 273 269 269 276
157 151 147 147 146 145 143 140 129 119 115 323 319 326 330 332 333 333 333 335 337 337 336 333 329 325 323 321 320 321 320 318 318 317 314 311 309 310 310 306 301 299 298 296 294 293 291 289 285 281 279 278 276 276 278 279 280 280 279 274 271 272 275 278 280 280 280 279 276 274 272 269 271 276
153 150 148 145 145 146 145 139 130 126 69 337 338 342 346 348 346 347 346 345 344 343 341 338 336 331 325 322 323 323 319 318 320 320 316 309 308 309 307 300 297 298 299 297 295 294 293 291 287 282 278 276 277 278 278 276 275 276 277 276 274 274 276 278 279 281 281 275 270 273 276 277 277 278
152 151 149 148 150 151 148 140 126 79 11 3 3 5 7 4 358 356 354 351 348 346 344 340 336 332 327 323 323 321 315 313 316 318 316 311 309 309 304 297 296 298 298 298 298 297 296 294 290 285 280 277 277 277 275 274 275 275 275 276 276 276 276 276 276 277 278 273 271 276 279 278 279 280
157 154 152 152 153 151 141 125 91 44 22 18 17 14 11 5 360 358 357 353 350 347 344 340 335 331 324 319 318 317 314 313 314 317 317 314 309 305 299 294 294 294 293 294 295 296 296 296 294 290 286 282 280 277 273 270 272 274 273 271 270 271 273 273 272 272 273 273 272 273 274 276 278 279
161 161 156 150 146 142 133 108 74 49 31 20 10 4 2 1 359 358 355 353 350 347 343 339 335 329 322 317 316 317 316 315 315 316 317 313 308 301 296 292 291 291 291 291 291 292 293 294 293 291 289 289 287 283 277 270 268 269 270 269 270 270 271 273 272 270 270 271 268 265 266 270 275 277
161 162 159 150 146 145 135 111 85 55 28 15 5 358 356 356 357 356 353 351 349 346 343 338 334 330 326 322 320 318 317 316 315 315 314 311 307 303 297 292 290 290 289 288 288 291 292 290 287 285 285 289 290 286 285 282 274 271 270 271 274 276 276 277 278 274 271 269 265 259 257 263 271 276
157 155 154 150 150 149 141 127 106 53 20 9 3 358 355 352 352 352 351 350 349 347 344 340 336 333 329 326 323 321 320 319 316 312 310 309 307 303 298 294 292 292 290 288 288 291 290 287 282 277 274 280 285 283 286 288 284 277 270 268 272 278 281 282 282 278 275 273 267 260 257 258 263 270
159 156 155 153 153 151 149 147 119 51 16 3 359 356 353 350 349 350 352 352 350 348 344 341 338 334 330 326 324 322 322 321 317 311 308 308 306 302 299 296 294 293 293 291 290 291 289 285 280 274 267 267 274 279 286 290 285 278 271 270 277 286 290 289 286 285 286 281 270 262 259 255 255 258
159 159 159 157 155 157 163 161 116 35 4 358 357 354 349 347 349 351 353 354 351 347 345 342 339 335 330 327 325 324 323 320 314 309 307 307 305 302 299 297 296 297 297 295 295 296 292 285 279 274 266 263 266 272 280 284 283 283 283 283 284 286 288 287 284 286 291 284 266 252 243 235 231 225
159 160 161 159 156 160 168 154 93 8 353 352 352 349 347 348 350 353 354 353 350 347 346 343 339 333 329 327 327 326 323 318 313 309 307 307 304 302 301 300 298 298 296 294 295 296 293 288 287 285 279 276 276 280 281 281 283 287 290 293 292 287 284 282 278 278 283 277 252 221 194 181 175 170
162 162 164 162 155 154 155 136 28 350 348 347 344 344 348 351 352 354 354 352 349 347 345 343 338 332 329 328 328 326 321 317 314 311 309 309 307 306 305 302 298 296 293 290 291 293 295 298 301 300 294 289 285 283 280 277 281 288 292 299 306 301 291 283 273 264 267 260 223 184 167 165 163 160
165 164 163 162 152 143 140 92 355 343 343 342 340 344 349 351 352 353 353 350 349 348 345 342 338 334 331 331 330 326 320 316 314 312 311 310 309 307 306 303 299 296 292 289 290 294 300 308 311 307 301 293 281 270 265 271 282 288 294 303 311 309 301 294 276 252 253 251 220 186 168 160 156 160
164 160 156 155 147 140 127 13 344 338 337 339 341 346 350 349 350 353 352 349 348 348 345 342 340 336 333 332 331 328 323 318 316 314 313 311 309 306 304 303 302 301 297 295 297 301 306 312 316 313 303 289 272 259 259 270 279 285 295 306 312 314 314 311 262 210 210 213 213 214 200 166 140 181
159 157 150 146 147 145 94 343 337 335 338 341 345 348 349 348 350 353 352 348 348 349 347 345 343 339 336 335 333 330 327 324 320 317 315 313 311 309 307 306 306 305 303 301 302 305 308 313 318 314 299 281 265 258 258 264 275 285 295 302 307 344 87 95 126 149 162 168 175 195 190 167 90 17
157 157 151 153 158 163 326 333 335 339 343 346 347 348 348 348 350 352 351 349 349 350 349 347 345 342 341 339 335 331 328 327 324 321 318 317 315 314 313 311 308 307 307 305 303 304 309 312 312 307 296 285 276 267 259 259 272 285 289 293 120 119 113 112 115 113 109 109 108 110 155 184 42 71